TimeEST,TemperatureF,Dew PointF,Humidity,Sea Level PressureIn,VisibilityMPH,Wind Direction,Wind SpeedMPH,Gust SpeedMPH,PrecipitationIn,Events,Conditions,WindDirDegrees,DateUTC
12:53 AM,64.9,61.0,87,30.18,10.0,SW,4.6,-,N/A,,Partly Cloudy,230,2012-01-02 05:53:00
1:53 AM,64.9,62.1,90,30.16,10.0,SW,3.5,-,N/A,,Scattered Clouds,220,2012-01-02 06:53:00
2:53 AM,64.9,63.0,93,30.14,10.0,WSW,4.6,-,N/A,,Scattered Clouds,240,2012-01-02 07:53:00
3:53 AM,64.0,62.1,93,30.13,10.0,SSW,3.5,-,N/A,,Scattered Clouds,200,2012-01-02 08:53:00
4:53 AM,64.9,63.0,93,30.13,10.0,WSW,4.6,-,N/A,,Scattered Clouds,240,2012-01-02 09:53:00
5:53 AM,66.9,64.9,93,30.13,10.0,Variable,5.8,-,N/A,,Mostly Cloudy,0,2012-01-02 10:53:00
6:53 AM,62.1,59.0,90,30.15,10.0,NNW,9.2,-,0.00,,Overcast,330,2012-01-02 11:53:00
7:53 AM,62.1,55.9,80,30.18,10.0,NNW,12.7,-,N/A,,Mostly Cloudy,330,2012-01-02 12:53:00
8:53 AM,62.1,51.1,67,30.21,10.0,NNW,12.7,-,N/A,,Scattered Clouds,340,2012-01-02 13:53:00
9:53 AM,62.1,46.0,56,30.24,10.0,North,13.8,-,N/A,,Partly Cloudy,350,2012-01-02 14:53:00
10:53 AM,62.6,44.6,52,30.23,10.0,NNW,16.1,-,N/A,,Partly Cloudy,340,2012-01-02 15:53:00
11:53 AM,64.9,44.1,47,30.21,10.0,NNW,9.2,-,N/A,,Scattered Clouds,340,2012-01-02 16:53:00
12:53 PM,64.0,41.0,43,30.19,10.0,NW,15.0,20.7,N/A,,Mostly Cloudy,320,2012-01-02 17:53:00
1:53 PM,64.0,37.0,37,30.17,10.0,NW,13.8,23.0,N/A,,Mostly Cloudy,310,2012-01-02 18:53:00
2:53 PM,60.8,37.4,42,30.18,10.0,NW,16.1,24.2,N/A,,Overcast,320,2012-01-02 19:53:00
3:53 PM,57.9,37.0,46,30.20,10.0,NW,18.4,24.2,N/A,,Mostly Cloudy,320,2012-01-02 20:53:00
4:53 PM,57.0,39.0,51,30.21,10.0,NW,15.0,-,N/A,,Mostly Cloudy,320,2012-01-02 21:53:00
5:53 PM,55.0,39.0,55,30.24,10.0,NW,9.2,-,N/A,,Scattered Clouds,310,2012-01-02 22:53:00
6:53 PM,55.0,37.9,53,30.26,10.0,NW,8.1,-,N/A,,Mostly Cloudy,320,2012-01-02 23:53:00
7:53 PM,54.0,39.0,57,30.25,10.0,NW,5.8,-,N/A,,Scattered Clouds,310,2012-01-03 00:53:00
8:53 PM,53.1,37.9,57,30.26,10.0,NW,4.6,-,N/A,,Mostly Cloudy,310,2012-01-03 01:53:00
9:53 PM,52.0,37.0,57,30.26,10.0,NW,4.6,-,N/A,,Scattered Clouds,320,2012-01-03 02:53:00
10:53 PM,53.1,37.9,57,30.26,10.0,WNW,5.8,-,N/A,,Scattered Clouds,300,2012-01-03 03:53:00
11:53 PM,53.1,35.1,50,30.25,10.0,NW,8.1,-,N/A,,Mostly Cloudy,310,2012-01-03 04:53:00